Adelaide, Australia

3:08 AM ACDT on October 23, 2017 (GMT +1030)
Adelaide International

Weather History for YPAD - May, 2013

Change the Weather History Date:

Thursday, May 2, 2013

  Actual Average Record
Temperature  
Mean Temperature 56 °F -  
Max Temperature 70 °F 65 °F 78 °F (2002)
Min Temperature 43 °F 49 °F 41 °F (1999)
Degree Days  
Heating Degree Days 8    
Growing Degree Days 6 (Base 50)    
Moisture  
Dew Point 37 °F    
Average Humidity 46    
Maximum Humidity 81    
Minimum Humidity 14    
Precipitation  
Precipitation 0.00 in 0.07 in - ()
Sea Level Pressure  
Sea Level Pressure 30.23 in    
Wind  
Wind Speed 10 mph ()    
Max Wind Speed 20 mph    
Max Gust Speed -    
Visibility 18.2 miles    
Events      
Averages and records for this station are not official NWS values.
T = Trace of Precipitation, MM = Missing Value Source: Averaged Metar Reports

Daily Weather History Graph

Daily Weather History Graph

Search for Another Location

Airport or City:

Trip Planner

Search our weather history database for the weather conditions in past years. The results will help you decide how hot, cold, wet, or windy it might be!

Date:

Astronomy

May. 02, 2013 Rise Set
Actual Time 6:52 AM ACST 5:32 PM ACST
Civil Twilight 6:26 AM ACST 5:58 PM ACST
Nautical Twilight 5:56 AM ACST 6:28 PM ACST
Astronomical Twilight 5:26 AM ACST 6:58 PM ACST
Moon 12:01 AM ACST (5/3) 12:46 PM ACST (5/2)
Length of Visible Light 11h 32m
Length of Day
10h 39m
Waning Gibbous, 54% of the Moon is Illuminated
May 2
Waning Gibbous
May 2
Last Quarter
May 10
New
May 18
First Quarter
May 25
Full

Hourly Weather History & Observations

Time (ACST) Temp. Windchill Dew Point Humidity Pressure Visibility Wind Dir Wind Speed Gust Speed Precip Events Conditions
12:00 AM 55 °F - 43 °F 55% 30.33 in 16 mi ESE 10.4 mph - -   Partly Cloudy
12:00 AM 55.4 °F - 42.8 °F 63% 30.30 in - ESE 10.4 mph - N/A   Clear
12:30 AM 54 °F - 44 °F 58% 30.33 in - East 9.2 mph - -  
12:30 AM 53.6 °F - 42.8 °F 67% 30.30 in - East 9.2 mph - N/A   Clear
1:00 AM 53.6 °F - 42.8 °F 67% 30.30 in - ESE 9.2 mph - N/A   Clear
1:30 AM 51.8 °F - 41.0 °F 67% 30.30 in - ESE 4.6 mph - N/A   Clear
2:00 AM 50.0 °F - 41.0 °F 71% 30.30 in - NNE 3.5 mph - N/A   Clear
2:30 AM 46.4 °F 45.2 °F 41.0 °F 81% 30.30 in - East 3.5 mph - N/A   Clear
3:00 AM 44 °F - 39 °F 77% 30.30 in 19 mi East 5.8 mph - -   Partly Cloudy
3:00 AM 44.6 °F 41.4 °F 39.2 °F 81% 30.30 in - East 5.8 mph - N/A   Clear
3:30 AM 46 °F - 40 °F 74% 30.29 in - ENE 5.8 mph - -  
3:30 AM 46.4 °F 43.5 °F 41.0 °F 81% 30.27 in - ENE 5.8 mph - N/A   Clear
4:00 AM 48.2 °F - 41.0 °F 76% 30.27 in - East 8.1 mph - N/A   Clear
4:30 AM 50.0 °F - 41.0 °F 71% 30.30 in - East 6.9 mph - N/A   Clear
5:00 AM 48.2 °F - 41.0 °F 76% 30.30 in - East 9.2 mph - N/A   Clear
5:30 AM 48.2 °F - 41.0 °F 76% 30.30 in - ENE 3.5 mph - N/A   Clear
6:00 AM 50 °F - 39 °F 55% 30.31 in 16 mi ENE 8.1 mph - -   Partly Cloudy
6:00 AM 50.0 °F - 39.2 °F 66% 30.30 in - ENE 8.1 mph - N/A   Clear
6:30 AM 51 °F - 39 °F 54% 30.32 in - ENE 10.4 mph - -  
6:30 AM 51.8 °F - 39.2 °F 62% 30.30 in - ENE 10.4 mph - N/A   Clear
7:00 AM 48.2 °F - 39.2 °F 71% 30.30 in - NNE 10.4 mph - N/A   Clear
7:30 AM 50.0 °F - 39.2 °F 66% 30.33 in - NNE 9.2 mph - N/A   Clear
8:00 AM 53.6 °F - 39.2 °F 58% 30.30 in - NNE 10.4 mph - N/A   Clear
8:30 AM 55.4 °F - 37.4 °F 51% 30.30 in - NE 12.7 mph - N/A   Clear
9:00 AM 57 °F - 37 °F 35% 30.32 in 19 mi NE 16.1 mph - -   Partly Cloudy
9:00 AM 57.2 °F - 37.4 °F 48% 30.30 in - NE 16.1 mph - N/A   Clear
9:30 AM 59 °F - 38 °F 34% 30.30 in - NE 17.3 mph - -  
9:30 AM 59.0 °F - 37.4 °F 45% 30.30 in - NE 17.3 mph - N/A   Clear
10:00 AM 60.8 °F - 37.4 °F 42% 30.27 in - NE 12.7 mph - N/A   Clear
10:30 AM 62.6 °F - 37.4 °F 39% 30.27 in - NE 15.0 mph - N/A   Clear
11:00 AM 64.4 °F - 37.4 °F 37% 30.27 in - NNE 16.1 mph - N/A   Clear
11:30 AM 64.4 °F - 35.6 °F 34% 30.24 in - NNE 16.1 mph - N/A   Clear
12:00 PM 66 °F - 36 °F 22% 30.25 in 19 mi NNE 13.8 mph - -   Partly Cloudy
12:00 PM 66.2 °F - 37.4 °F 35% 30.24 in - NNE 13.8 mph - N/A   Clear
12:30 PM 67 °F - 37 °F 22% 30.24 in - NNE 15.0 mph - -  
12:30 PM 68.0 °F - 37.4 °F 33% 30.21 in - NNE 15.0 mph - N/A   Clear
1:00 PM 66.2 °F - 37.4 °F 35% 30.21 in - North 13.8 mph - N/A   Clear
1:30 PM 68.0 °F - 35.6 °F 30% 30.18 in - North 17.3 mph - N/A   Clear
2:00 PM 69.8 °F - 35.6 °F 28% 30.18 in - NNE 19.6 mph - N/A   Clear
2:30 PM 69.8 °F - 33.8 °F 27% 30.18 in - NNE 16.1 mph - N/A   Clear
3:00 PM 70 °F - 32 °F 14% 30.18 in 19 mi NNE 18.4 mph - -   Partly Cloudy
3:00 PM 69.8 °F - 32.0 °F 25% 30.15 in - NNE 18.4 mph - N/A   Clear
3:30 PM 69 °F - 32 °F 15% 30.18 in - North 17.3 mph - -  
3:30 PM 69.8 °F - 32.0 °F 25% 30.15 in - North 17.3 mph - N/A   Clear
4:00 PM 69.8 °F - 33.8 °F 27% 30.15 in - NNE 16.1 mph - N/A   Clear
4:30 PM 68.0 °F - 33.8 °F 28% 30.15 in - NNE 17.3 mph - N/A   Clear
5:00 PM 66.2 °F - 33.8 °F 30% 30.12 in - NNE 13.8 mph - N/A   Clear
5:30 PM 64.4 °F - 33.8 °F 32% 30.15 in - NNE 16.1 mph - N/A   Clear
6:00 PM 63 °F - 36 °F 24% 30.17 in 19 mi NNE 15.0 mph - -   Partly Cloudy
6:00 PM 62.6 °F - 35.6 °F 37% 30.15 in - NNE 15.0 mph - N/A   Clear
6:30 PM 62.6 °F - 35.6 °F 37% 30.15 in - NE 11.5 mph - N/A   Clear
7:00 PM 60.8 °F - 35.6 °F 39% 30.15 in - NE 12.7 mph - N/A   Clear
7:30 PM 60.8 °F - 35.6 °F 39% 30.15 in - NE 12.7 mph - N/A   Clear
8:00 PM 60.8 °F - 35.6 °F 39% 30.15 in - NE 12.7 mph - N/A   Clear
8:30 PM 60.8 °F - 33.8 °F 36% 30.15 in - NE 11.5 mph - N/A   Clear
9:00 PM 60 °F - 34 °F 25% 30.17 in 19 mi NNE 11.5 mph - -   Partly Cloudy
9:00 PM 60.8 °F - 33.8 °F 36% 30.15 in - NNE 11.5 mph - N/A   Clear
9:30 PM 59 °F - 34 °F 27% 30.17 in - NE 12.7 mph - -  
9:30 PM 59.0 °F - 33.8 °F 39% 30.15 in - NE 12.7 mph - N/A   Clear
10:00 PM 60.8 °F - 32.0 °F 34% 30.15 in - NE 12.7 mph - N/A   Clear
10:30 PM 60.8 °F - 33.8 °F 36% 30.15 in - NE 11.5 mph - N/A   Clear
11:00 PM 60.8 °F - 32.0 °F 34% 30.12 in - NE 12.7 mph - N/A   Clear
11:30 PM 60.8 °F - 32.0 °F 34% 30.12 in - NNE 11.5 mph - N/A   Clear